Regional Weather Roundup
Issued by NWS

Home | Current Version | Previous Version | Graphics & Text | Print | Product List | Glossary On
Versions: 1 2 3 4 5 6 7 8 9 10 11 12 13 14 15 16 17 18 19 20 21 22 23 24 25 26 27 28 29 30 31 32 33 34 35 36 37 38 39 40 41 42 43 44 45 46 47 48 49 50
938
ASUS45 KTFX 220410
RWRMT
MONTANA REGIONAL WEATHER ROUNDUP
NATIONAL WEATHER SERVICE GREAT FALLS MT
1000 PM MDT THU SEP 21 2017

NOTE: "FAIR" INDICATES FEW OR NO CLOUDS BELOW 12000 FEET WITH NO
SIGNIFICANT WEATHER AND/OR OBSTRUCTIONS TO VISIBILITY.

MTZ001>007-043-220500-
WEST OF THE DIVIDE

CITY           SKY/WX    TMP DP  RH WIND       PRES   REMARKS
KALISPELL      PTCLDY    43  39  86 N8        29.95S
MISSOULA       PTCLDY    41  35  79 NW5       29.92R
BUTTE          CLOUDY    39  32  76 S8        29.88F
MULLAN PASS    CLEAR     32  30  92 VRB5      29.92F
ANACONDA         N/A     39  28  65 CALM      29.89F
DEER LODGE       N/A     43  30  61 NW6       29.91F
EUREKA           N/A     43  39  87 CALM      29.99R
HAMILTON         N/A     39  34  81 CALM        N/A
LIBBY            N/A     43  41  93 CALM      29.97S
PLAINS           N/A     45  35  67 CALM      29.95R
$$

MTZ008-052>055-220500-
SOUTHWEST MONTANA

CITY           SKY/WX    TMP DP  RH WIND       PRES   REMARKS
BOZEMAN        CLOUDY    42  38  85 S7        29.89S
DILLON         CLOUDY    40  32  73 VRB3      29.86F
W YELLOWSTONE  LGT SNOW  34  34 100 VRB8G14   29.82F WCI  27
ENNIS          CLOUDY    36  34  93 N16       29.91R WCI  26
THREE FORKS      N/A     43  35  73 CALM      29.89F
TWIN BRIDGES     N/A     42  29  60 N5        29.85F
$$

MTZ009-010-012-014-046-048-049-054-220500-
EAST SLOPES AND CENTRAL MONTANA

CITY           SKY/WX    TMP DP  RH WIND       PRES   REMARKS
CUT BANK       CLOUDY    39  30  70 N10       30.02R
GREAT FALLS    CLOUDY    45  32  60 NE18      29.96R
MALMSTROM AFB  CLOUDY    45  34  66 NE14      29.96R
HELENA         CLOUDY    46  37  71 CALM      29.89S
BOWMANS CRNR   MOCLDY    40  31  68 N20       29.95R
CHOTEAU          N/A     41  32  70 N17G24    30.01R
FAIRFIELD      MOCLDY    43  30  60 N13       29.98R
POWER          MOCLDY    42  31  64 N13       29.97R
RAYNESFORD     MOCLDY    44  33  66 E5        29.94F
ULM            MOCLDY    46  33  59 N10       29.94R
$$

MTZ011-013-016-021-045-047-050-051-220500-
NORTH CENTRAL MONTANA

CITY           SKY/WX    TMP DP  RH WIND       PRES   REMARKS
HAVRE          PTCLDY    45  31  58 N9        29.98R
LEWISTOWN      CLOUDY    44  34  67 N6        29.92F
N BAR RANCH    CLOUDY    43  32  65 NW6       29.96S
CHINOOK          N/A     43  30  61 N3        29.97R
DENTON           N/A     45  32  60 NW10      29.90F
GEYSER         CLOUDY    43  35  71 N5        29.93F
GRASS RANGE    MOCLDY    45  35  69 CALM      29.91R
JUDITH GAP     CLOUDY    41  34  76 W6        29.93S
WINIFRED         N/A     41  33  75 NE5       29.94R
$$

MTZ017>020-022>027-061-062-220500-
NORTHEAST MONTANA

CITY           SKY/WX    TMP DP  RH WIND       PRES   REMARKS
GLASGOW        PTCLDY    47  33  58 N7        29.92R
JORDAN           N/A     50  36  58 N5        29.91R
SIDNEY         CLOUDY    49  37  63 NW10      29.89S
WOLF POINT     PTCLDY    53  34  48 N7        29.92R
MALTA          CLEAR     46  30  53 N13       29.94S
POPLAR           N/A     48  37  66 N3        29.91R
SCOBEY           N/A     44  30  58 CALM      29.93R
$$

MTZ028>42-056>058-220500-
SOUTHCENTRAL AND SOUTHEAST MONTANA

CITY           SKY/WX    TMP DP  RH WIND       PRES   REMARKS
BAKER          CLOUDY    50  33  52 N3        29.90R
BILLINGS       RAIN      43  38  82 E8G18     29.94R
LIVINGSTON     LGT RAIN  41  38  89 E10       29.91R
MILES CITY     LGT RAIN  49  41  74 N7        29.90S
BIG TIMBER     CLOUDY    41  37  87 NE8       29.96R
EKALAKA          N/A     48  32  54 N6        29.88S
HARLOWTON      CLOUDY    44  36  75 MISG      29.93R
LAUREL           N/A     43  39  87 E9        29.94R FOG
$$

REGIONAL REPORTS...DAKOTAS

CITY           SKY/WX    TMP DP  RH WIND       PRES   REMARKS
WILLISTON      CLOUDY    51  37  58 N12       29.89S
MINOT          CLOUDY    53  39  59 NW14      29.83S
DICKINSON      CLOUDY    51  38  60 N8        29.86R
BEACH            N/A     43  36  75 NW10      29.93R
CROSBY           N/A     46  39  76 NW5       29.91S
TIOGA            N/A     50  36  57 N7        29.91R
WATFORD CITY     N/A     45  39  81 CALM      29.88S
BISMARCK       CLEAR     61  47  59 N13G21    29.79R
GRAND FORKS    CLEAR     68  58  70 SE6       29.71R
FARGO          CLEAR     73  66  78 SE9       29.71R
BUFFALO SD       N/A     54  36  50 N20       29.76S
RAPID CITY     CLEAR     59  39  47 N14       29.77R
$$

REGIONAL REPORTS...WYOMING/IDAHO/WASHINGTON

CITY           SKY/WX    TMP DP  RH WIND       PRES   REMARKS
GILLETTE       CLOUDY    48  31  51 N18       29.85R
SHERIDAN       CLOUDY    45  41  86 W8        29.91F
BUFFALO WY     CLOUDY    44  35  70 NW17      29.91S
CODY           LGT RAIN  37  34  89 NW7       29.88F WCI  32
IDAHO FALLS    LGT RAIN  41  40  96 W8        29.81R
SALMON         CLOUDY    45  36  70 N7        29.82F
BOISE          CLOUDY    51  36  56 NE7       29.82R
SPOKANE        PTCLDY    46  42  86 NE3       29.96R
$$

REGIONAL REPORTS...ALBERTA

CITY           SKY/WX    TMP DP  RH WIND       PRES   REMARKS
EDMONTON       LGT RAIN  37  37 100 N6        30.07R
CALGARY        LGT RAIN  36  32  87 NW7       30.06R FOG     WCI  30
LETHBRIDGE     CLOUDY    39  32  75 W14       30.06R WCI  31
MEDICINE HAT   MOCLDY    37  32  81 W6        30.01R
$$

REGIONAL REPORTS...SASKATCHEWAN

CITY           SKY/WX    TMP DP  RH WIND       PRES   REMARKS
SWIFT CURRENT  CLEAR     34  27  75 W8        29.94R WCI  27
REGINA         MOCLDY    43  32  65 NW6       29.93R
SASKATOON      LGT RAIN  43  41  93 W6        29.93R
$$




USA.gov is the U.S. government's official web portal to all federal, state and local government web resources and services.